Weather History for KOPF - May, 2013

Change the Weather History Date:

Thursday, May 16, 2013

  Actual Average Record
Temperature  
Mean Temperature 76 °F -  
Max Temperature 84 °F 87 °F 94 °F (1985)
Min Temperature 69 °F 71 °F 57 °F (1951)
Cooling Degree Days 10    
Growing Degree Days 26 (Base 50)    
Moisture  
Dew Point 61 °F    
Average Humidity 58    
Maximum Humidity 73    
Minimum Humidity 47    
Precipitation  
Precipitation 0.00 in - - ()
Sea Level Pressure  
Sea Level Pressure 30.08 in    
Wind  
Wind Speed 8 mph (ESE)    
Max Wind Speed 15 mph    
Max Gust Speed 18 mph    
Visibility 10 miles    
Events      
Averages and records for this station are not official NWS values.
T = Trace of Precipitation, MM = Missing Value Source: NWS Daily Summary

Daily Weather History Graph

Daily Weather History Graph

Search for Another Location

Airport or City:

Trip Planner

Search our weather history database for the weather conditions in past years. The results will help you decide how hot, cold, wet, or windy it might be!

Date:

Astronomy

May. 16, 2013 Rise Set
Actual Time 6:34 AM EDT 8:00 PM EDT
Civil Twilight 6:09 AM EDT 8:25 PM EDT
Nautical Twilight 5:39 AM EDT 8:55 PM EDT
Astronomical Twilight 5:08 AM EDT 9:26 PM EDT
Moon 11:56 AM EDT (5/16) 12:29 AM EDT (5/16)
Length of Visible Light 14h 16m
Length of Day
13h 26m
Waxing Crescent, 35% of the Moon is Illuminated
May 16
Waxing Crescent
May 18
First Quarter
May 25
Full
May 31
Last Quarter
Jun 8
New

Hourly Weather History & Observations

Time (EDT) Temp. Heat Index Dew Point Humidity Pressure Visibility Wind Dir Wind Speed Gust Speed Precip Events Conditions
12:53 AM 73.0 °F - 57.9 °F 59% 30.12 in 10.0 mi East 6.9 mph - N/A   Clear
1:53 AM 73.0 °F - 57.0 °F 57% 30.09 in 10.0 mi ESE 9.2 mph - N/A   Scattered Clouds
2:53 AM 71.1 °F - 57.0 °F 61% 30.07 in 10.0 mi ESE 8.1 mph - N/A   Clear
3:53 AM 70.0 °F - 55.9 °F 61% 30.06 in 10.0 mi ESE 4.6 mph - N/A   Clear
4:53 AM 71.1 °F - 59.0 °F 66% 30.06 in 10.0 mi Calm Calm - N/A   Clear
5:53 AM 69.1 °F - 60.1 °F 73% 30.06 in 10.0 mi Calm Calm - N/A   Mostly Cloudy
6:53 AM 69.1 °F - 60.1 °F 73% 30.07 in 10.0 mi ESE 4.6 mph - N/A   Scattered Clouds
7:53 AM 75.0 °F - 60.1 °F 60% 30.09 in 10.0 mi East 6.9 mph - N/A   Partly Cloudy
8:53 AM 78.1 °F - 59.0 °F 52% 30.10 in 10.0 mi East 10.4 mph - N/A   Scattered Clouds
9:53 AM 79.0 °F - 60.1 °F 52% 30.11 in 10.0 mi East 10.4 mph - N/A   Mostly Cloudy
10:53 AM 78.8 °F - 60.8 °F 54% 30.11 in 10.0 mi ESE 10.4 mph 16.1 mph N/A   Scattered Clouds
11:53 AM 81.0 °F 81.7 °F 61.0 °F 50% 30.12 in 10.0 mi SE 12.7 mph - N/A   Mostly Cloudy
12:53 PM 82.9 °F 83.7 °F 62.1 °F 49% 30.11 in 10.0 mi ENE 6.9 mph 16.1 mph N/A   Mostly Cloudy
1:53 PM 82.0 °F 83.0 °F 62.1 °F 51% 30.10 in 10.0 mi SE 9.2 mph - N/A   Mostly Cloudy
2:53 PM 82.9 °F 83.3 °F 61.0 °F 47% 30.09 in 10.0 mi East 9.2 mph 17.3 mph N/A   Partly Cloudy
3:53 PM 81.0 °F 81.7 °F 61.0 °F 50% 30.07 in 10.0 mi ESE 9.2 mph 18.4 mph N/A   Partly Cloudy
4:53 PM 82.0 °F 82.7 °F 61.0 °F 49% 30.06 in 10.0 mi East 9.2 mph - N/A   Scattered Clouds
5:53 PM 78.8 °F - 60.8 °F 54% 30.05 in 10.0 mi East 13.8 mph - N/A   Mostly Cloudy
6:53 PM 79.0 °F - 61.0 °F 54% 30.05 in 10.0 mi ESE 11.5 mph - N/A   Mostly Cloudy
7:53 PM 75.9 °F - 62.1 °F 62% 30.05 in 10.0 mi East 15.0 mph - N/A   Clear
8:53 PM 75.9 °F - 63.0 °F 64% 30.06 in 10.0 mi East 11.5 mph - N/A   Clear
9:53 PM 75.9 °F - 63.0 °F 64% 30.07 in 10.0 mi East 10.4 mph - N/A   Mostly Cloudy
10:53 PM 75.9 °F - 64.0 °F 67% 30.07 in 10.0 mi East 11.5 mph - N/A   Mostly Cloudy
11:53 PM 75.0 °F - 64.0 °F 69% 30.07 in 10.0 mi East 5.8 mph - N/A   Clear